Home   Weather   Bordeaux   Past weeks
Flag for France

Past Weather in Bordeaux, Nouvelle-Aquitaine, France — Yesterday and Last 2 Weeks

Now
63 °F

Scattered clouds.


Feels Like: 63 °F
Forecast: 87 / 62 °F
Wind: 3 mph from West

Location: Bordeaux / Merignac

Current Time: Jul 18, 2019 at 9:18:18 am

Latest Report: Jul 18, 2019 at 8:30 am


Visibility: N/A

Pressure: 30.07 "Hg

Humidity: 83%

Dew Point: 57 °F

Location of BordeauxLocation

Past Weather in Bordeaux — Graph

°F

Bordeaux Temperature Yesterday

Maximum temperature yesterday: 82 °F (at 1:00 pm)
Minimum temperature yesterday: 61 °F (at 5:00 am)
Average temperature yesterday: 72 °F

High & Low Weather Summary for the Past Weeks

 TemperatureHumidityPressure
High95 °F (Jul 4, 5:00 pm)100% (Jul 7, 6:00 am)30.09 "Hg (Jul 7, 6:00 am)
Low57 °F (Jul 16, 6:30 am)25% (Jul 10, 4:00 pm)29.86 "Hg (Jul 8, 7:00 pm)
Average75 °F58%29.99 "Hg
* Reported Jul 3 8:00 am — Jul 18 8:00 am, Bordeaux. Weather by CustomWeather, © 2019

Note: Actual official high and low records may vary slightly from our data, if they occured in-between our weather recording intervals... More about our weather records

Advertising

Bordeaux Weather History for the Previous 24 Hours

Scroll right to see more
 ConditionsComfort  
Time TempWeatherWind HumidityBarometerVisibility
8:00 am
Thu, Jul 18
63 °FMore clouds than sun.3 mph83%30.07 "HgN/A
7:30 am61 °FPartly sunny.5 mph88%30.07 "HgN/A
7:00 am61 °FPassing clouds.5 mph88%30.07 "HgN/A
6:30 am61 °FScattered clouds.6 mph88%30.04 "HgN/A
6:00 am61 °FPartly cloudy.6 mph88%30.04 "HgN/A
5:30 am61 °FPassing clouds.6 mph88%30.04 "HgN/A
5:00 am61 °FPassing clouds.5 mph88%30.04 "HgN/A
4:30 am61 °FPassing clouds.5 mph88%30.04 "HgN/A
4:00 am61 °FPassing clouds.3 mph88%30.04 "HgN/A
3:30 am61 °FPartly cloudy.5 mph88%30.04 "HgN/A
3:00 am61 °FPassing clouds.5 mph88%30.07 "HgN/A
2:30 am61 °FClear.5 mph88%30.07 "HgN/A
2:00 am63 °FClear.5 mph83%30.07 "Hg10 mi
1:30 am63 °FPassing clouds.3 mph88%30.07 "HgN/A
1:00 am64 °FPassing clouds.5 mph83%30.07 "HgN/A
12:30 am64 °FPassing clouds.3 mph83%30.07 "HgN/A
12:00 am64 °FPassing clouds.5 mph83%30.07 "HgN/A
11:30 pm
Wed, Jul 17
66 °FPassing clouds.5 mph78%30.07 "HgN/A
11:00 pm66 °FPassing clouds.3 mph78%30.07 "HgN/A
10:30 pm66 °FClear.7 mph78%30.04 "Hg10 mi
10:00 pm68 °FPassing clouds.7 mph73%30.04 "HgN/A
9:30 pm70 °FScattered clouds.10 mph69%30.04 "HgN/A
9:00 pm70 °FPassing clouds.12 mph69%30.04 "HgN/A
8:30 pm73 °FSunny.12 mph61%30.01 "Hg10 mi
8:00 pm75 °FSunny.13 mph54%30.01 "Hg10 mi
7:30 pm77 °FPassing clouds.13 mph47%30.01 "HgN/A
7:00 pm79 °FPassing clouds.13 mph45%30.01 "HgN/A
6:30 pm79 °FPassing clouds.12 mph45%30.01 "HgN/A
6:00 pm81 °FSunny.14 mph39%30.01 "Hg10 mi
5:30 pm81 °FPassing clouds.14 mph42%30.01 "HgN/A
5:00 pm82 °FPassing clouds.14 mph37%30.01 "HgN/A
4:30 pm82 °FPassing clouds.10 mph35%30.01 "HgN/A
4:00 pm82 °FPassing clouds.12 mph37%30.01 "HgN/A
3:30 pm82 °FPassing clouds.13 mph37%30.01 "HgN/A
3:00 pm82 °FPassing clouds.10 mph35%30.01 "HgN/A
2:30 pm82 °FPassing clouds.10 mph35%30.01 "HgN/A
2:00 pm82 °FPassing clouds.9 mph35%30.01 "HgN/A
1:30 pm82 °FPassing clouds.12 mph37%30.01 "HgN/A
1:00 pm82 °FPassing clouds.12 mph37%30.01 "HgN/A
12:30 pm81 °FPassing clouds.12 mph42%30.01 "HgN/A
12:00 pm81 °FPassing clouds.9 mph45%30.01 "HgN/A
11:30 am79 °FSunny.9 mph51%30.01 "Hg10 mi
11:00 am77 °FSunny.9 mph57%30.01 "Hg10 mi
10:30 am75 °FPassing clouds.8 mph57%30.01 "HgN/A
10:00 am73 °FPassing clouds.8 mph65%30.01 "HgN/A
9:30 am72 °FSunny.7 mph69%30.01 "Hg10 mi
9:00 am68 °FSunny.6 mph78%30.01 "Hg10 mi
Weather by CustomWeather, © 2019

See weather overview